SCP
0 0 0 0 0 0 0 0 0 0 0 0 0 0 0 0 -0 -0 -0 -0 0 0 0 0 1 1 1 0 0 0 0 0 0 0 0 0 0 0 0 0 0 0 0 0
0 0 0 0 0 0 0 0 0 0 0 0 -0 0 0 0 0 -0 -0 -0 0 0 -0 1 1 1 1 1 0 0 0 0 0 0 0 0 0 0 0 0 0 0 0 0
0 0 0 0 0 0 0 0 0 0 0 0 0 -0 0 0 0 0 -0 -0 0 0 0 2 2 1 3 0 0 0 0 0 0 0 1 1 1 0 0 0 0 0 0 0
0 0 0 0 0 0 0 0 0 0 0 0 0 0 -0 0 0 0 0 0 0 0 0 2 2 1 2 1 0 0 0 0 0 0 1 1 1 1 1 0 0 0 0 0
0 0 0 0 0 0 0 0 0 0 0 0 0 0 0 0 0 0 0 0 0 0 0 2 1 2 2 1 0 0 0 0 0 0 0 0 2 1 1 1 0 0 0 0
0 0 0 0 0 0 0 0 0 0 0 0 0 0 -0 0 0 0 0 0 0 0 0 1 1 1 4 1 1 0 0 0 0 0 0 0 1 2 1 0 0 0 0 0
0 0 0 0 -0 0 0 0 0 0 0 0 0 0 0 -0 0 0 0 0 0 0 0 1 1 1 1 1 0 0 0 0 0 0 0 -0 0 1 1 0 0 0 0 0
0 0 0 0 0 0 0 0 0 0 0 0 0 0 0 0 0 0 0 0 0 0 0 0 1 1 1 1 0 0 0 0 0 0 0 0 0 1 1 0 0 0 0 0
0 0 0 0 0 0 0 0 0 0 0 0 0 -0 0 -0 -0 0 0 0 0 0 0 1 1 1 0 0 0 0 0 0 0 0 -0 0 0 1 0 0 0 0 0 0
0 0 0 0 0 0 0 0 0 0 0 0 0 0 0 -0 -0 0 0 0 0 0 0 1 1 1 0 0 0 0 0 0 0 0 -0 0 0 0 0 0 0 0 0 0
0 0 0 0 0 0 0 0 0 0 0 0 0 0 -0 -0 -0 0 0 0 0 0 0 1 1 1 0 1 0 0 0 0 0 0 0 0 0 0 0 0 0 0 0 0
0 0 0 0 0 0 0 0 0 0 0 0 0 0 -0 -0 0 0 0 0 0 0 0 1 1 1 1 1 1 2 1 1 1 1 0 0 0 0 0 0 0 0 0 0
0 0 -0 -0 0 0 0 0 0 0 0 0 0 0 -0 -0 -0 -0 0 0 1 0 0 2 1 2 3 4 4 4 2 2 1 0 0 0 0 0 0 0 0 0 0 0
0 0 0 -0 0 0 0 -0 -0 0 0 0 0 -0 -0 -0 -0 -0 -0 0 0 0 2 2 3 4 3 3 3 1 0 0 0 0 0 0 0 0 0 0 0 0 0 0
0 0 0 0 0 0 -0 -0 -0 -0 -0 0 0 -0 -0 -0 -0 -0 -0 0 0 1 1 1 1 1 0 0 0 0 0 0 0 0 0 0 0 0 0 0 0 0 0 0
0 0 0 0 0 -0 0 -0 -0 -0 -0 0 0 -0 -0 -0 -0 -0 -0 -0 0 0 0 0 0 0 0 0 0 0 0 0 0 0 0 0 0 0 0 0 0 0 0 0
0 0 0 0 0 -0 0 0 0 -0 -0 -0 0 -0 -0 -0 -0 -0 -0 0 0 0 0 0 0 0 0 0 0 0 0 0 0 0 0 0 0 0 0 0 0 0 -0 0
0 0 0 0 0 -0 0 -0 -0 0 -0 0 0 -0 -0 -0 0 -0 -0 0 0 0 0 0 0 0 0 0 0 0 0 0 0 0 0 0 0 0 0 0 0 -0 -0 0
0 0 0 0 0 -0 0 -0 0 -0 0 0 -0 -0 -0 0 -0 0 -0 -0 0 0 0 0 0 0 0 0 0 0 0 0 0 0 0 0 0 0 0 0 -0 -0 0 0
0 0 0 0 0 -0 -0 0 -0 0 0 -0 -0 -0 0 0 -0 0 -0 -0 0 0 0 0 0 0 0 0 0 0 0 0 0 0 0 0 0 0 -0 -0 -0 -0 -0 0
0 0 0 0 0 -0 0 -0 0 -0 -0 -0 -0 -0 -0 -0 0 0 0 0 0 0 0 0 0 0 0 -0 0 0 0 0 0 0 0 0 0 -0 -0 -0 -0 -0 0 0
0 0 0 0 0 0 -0 0 0 -0 0 0 -0 0 0 0 -0 -0 -0 0 -0 0 -0 0 0 0 0 0 0 0 0 0 0 0 0 0 0 -0 -0 -0 -0 0 0 0
0 0 0 0 0 0 0 -0 0 0 -0 0 0 0 0 -0 -0 -0 -0 -0 -0 0 -0 0 0 0 0 0 0 0 0 0 0 0 0 0 -0 -0 -0 -0 0 0 0 0
0 0 0 0 0 0 0 0 0 0 0 -0 -0 0 0 -0 -0 -0 0 -0 -0 0 -0 -0 -0 0 0 0 0 0 0 0 0 0 0 -0 -0 -0 0 0 0 0 0 0
0 0 0 0 0 0 0 0 -0 0 0 0 -0 0 0 0 0 0 0 0 0 0 0 0 0 -0 -0 0 0 0 0 0 0 0 -0 -0 0 0 0 0 0 0 0 0
0 0 0 0 0 0 0 0 0 -0 0 0 0 0 0 0 0 0 0 0 0 0 0 0 0 0 -0 -0 -0 0 0 -0 -0 -0 0 0 0 0 0 0 0 -0 -0 -0
Wind_Speed_500mb
8 2 20 34 28 29 28 27 40 38 21 27 45 40 37 24 27 23 46 47 47 44 39 36 36 53 113 97 89 80 86 86 81 74 71 75 74 68 61 56 47 40 32 29
8 21 37 21 25 28 29 33 43 40 26 19 26 42 37 31 38 38 40 53 55 45 31 32 37 58 90 98 76 73 80 78 80 72 65 68 64 62 55 49 46 39 37 29
13 33 31 22 10 10 17 26 37 37 35 25 32 46 34 37 39 50 48 66 62 50 41 41 40 50 82 70 67 69 76 73 76 66 58 61 63 62 60 56 49 47 40 33
19 11 13 26 26 19 30 23 38 38 22 19 14 22 36 29 34 20 36 50 61 54 43 50 49 58 76 56 55 76 83 79 74 69 60 66 70 63 64 55 52 52 48 39
17 29 16 20 13 9 23 21 29 33 32 24 36 16 25 22 30 37 30 52 67 60 53 58 60 67 87 79 80 85 84 85 76 67 46 52 66 60 60 57 55 52 51 42
32 30 9 10 11 13 22 16 21 23 5 11 28 19 37 26 38 27 16 38 57 62 60 66 62 83 89 105 92 97 97 94 86 70 40 22 60 71 62 54 55 54 51 43
16 13 9 2 19 8 9 13 11 6 4 11 2 17 22 29 15 23 20 21 30 47 61 70 74 82 95 105 104 110 91 90 94 61 55 51 53 70 64 53 54 59 49 41
9 18 9 5 5 15 10 3 7 11 7 16 9 10 9 24 9 21 10 19 22 29 51 67 69 73 93 106 109 107 77 89 94 91 86 57 71 70 61 58 60 53 47 37
9 12 11 24 26 2 1 9 4 8 8 8 7 13 10 44 42 35 22 20 15 29 33 58 61 69 82 108 112 104 90 73 65 86 80 94 72 71 60 54 56 53 46 32
7 18 10 22 3 7 9 1 7 4 8 8 8 6 17 45 39 35 27 18 26 18 34 62 63 67 83 96 96 93 97 74 80 83 60 78 74 72 67 61 58 55 43 37
3 7 20 18 6 15 9 8 9 4 7 4 8 4 16 30 33 35 30 33 26 13 34 63 68 71 83 84 83 87 98 91 92 92 83 86 86 74 68 63 59 50 45 31
5 4 12 24 32 9 13 21 17 6 8 6 4 6 14 33 29 25 30 43 31 23 26 54 66 71 86 81 80 84 79 75 75 87 90 91 83 70 65 59 50 46 41 33
2 4 13 19 9 9 15 30 33 11 5 7 8 8 26 31 25 31 32 44 14 23 33 46 61 71 72 68 62 60 61 67 77 83 76 83 77 72 65 57 50 50 40 31
5 4 9 10 30 29 27 31 17 10 8 14 5 21 26 36 31 39 56 54 22 23 36 49 51 59 61 63 62 58 57 66 69 76 78 83 77 74 65 66 64 53 39 39
3 8 8 26 34 24 13 28 35 29 34 7 34 18 25 32 30 37 59 50 43 48 47 44 51 52 62 60 56 59 58 58 62 64 68 80 75 74 71 71 48 48 46 47
5 8 7 20 9 23 26 31 40 28 36 19 28 15 29 30 58 54 56 56 37 40 56 57 56 53 56 61 58 56 53 59 57 73 62 69 81 75 85 76 61 60 54 46
4 6 11 10 18 19 9 23 29 22 34 28 21 29 33 24 28 39 58 48 45 36 50 56 62 57 54 56 62 67 63 58 59 45 45 52 71 74 67 63 62 53 44 38
7 4 4 10 15 4 5 8 17 16 34 34 36 36 30 25 14 41 47 51 29 42 51 49 64 59 59 62 57 64 78 76 75 72 81 67 47 43 66 59 52 46 40 34
8 4 6 4 7 10 5 13 15 11 8 26 33 39 42 45 15 13 41 40 25 32 46 56 70 75 71 62 57 66 86 87 77 86 81 76 73 71 65 57 52 46 35 30
4 7 3 3 6 7 6 21 41 7 3 31 34 32 28 36 6 6 40 29 22 19 36 62 55 47 46 38 52 70 64 65 68 84 88 88 81 75 69 59 49 39 32 30
7 6 5 6 6 10 5 26 27 9 11 39 43 34 26 9 5 22 23 31 26 23 20 21 29 33 38 53 66 66 70 66 72 79 77 72 69 64 57 48 39 38 36 34
5 1 5 6 6 10 12 13 10 4 21 35 39 25 18 13 11 13 12 17 19 20 19 18 23 26 36 51 58 66 55 68 77 76 72 67 64 58 48 43 47 43 37 34
5 10 4 10 9 10 19 14 16 9 14 29 34 25 12 16 12 7 7 11 21 21 24 27 27 30 38 32 41 51 59 64 68 73 72 68 59 51 47 50 50 45 35 33
6 4 6 3 7 10 22 20 21 15 11 25 22 6 13 15 11 6 3 8 11 21 25 27 34 39 45 51 60 62 66 68 70 70 67 61 53 51 48 46 41 40 35 35
14 2 6 9 15 18 15 17 17 22 8 2 14 13 15 12 11 5 5 6 13 18 27 30 39 47 57 63 68 65 69 66 65 60 57 56 56 54 51 46 40 37 34 26
18 15 9 11 19 12 12 12 13 20 19 7 5 13 12 12 13 8 9 8 10 16 20 30 41 54 59 63 64 62 59 57 56 62 62 62 61 55 48 47 52 39 36 38
Wind_Direction_500mb
264 273 255 256 233 246 271 272 265 262 273 280 274 277 273 285 258 254 273 275 282 280 272 259 244 228 212 216 211 215 213 214 203 191 192 196 198 196 194 190 186 185 187 194
331 263 269 271 259 262 258 266 269 280 254 237 279 276 271 275 266 255 255 266 271 270 266 240 229 208 199 198 200 207 209 212 208 193 188 193 190 190 189 186 189 191 195 203
237 264 304 313 286 291 255 248 267 269 293 247 273 273 274 267 263 258 247 251 262 261 256 227 224 214 196 188 193 201 206 208 209 205 195 190 191 196 196 199 194 196 201 208
271 280 299 302 286 271 273 245 254 266 281 283 186 278 277 270 262 242 234 234 245 253 248 219 214 207 198 183 192 207 203 200 201 202 206 203 200 202 203 198 195 194 198 204
269 303 312 311 257 233 247 275 269 266 263 275 274 262 263 252 247 242 237 228 238 246 237 207 197 197 195 194 199 202 198 194 198 191 187 197 208 196 193 195 195 190 195 199
263 279 231 222 296 296 257 312 290 276 308 252 255 259 281 258 241 247 227 224 233 242 233 206 201 189 193 187 190 197 197 195 196 191 192 277 213 200 198 193 192 192 194 195
319 293 289 160 326 311 15 319 306 301 252 255 323 281 260 287 279 228 208 205 244 249 228 200 196 193 186 187 193 198 205 204 201 210 207 278 224 215 207 197 196 197 197 195
352 325 6 2 308 276 311 245 285 301 310 291 261 243 264 4 24 19 334 264 251 269 216 201 194 197 193 200 198 196 203 208 210 221 231 226 235 214 205 197 194 201 207 201
331 270 308 299 290 244 297 253 215 267 233 283 269 287 269 353 4 3 9 14 266 272 213 210 198 199 197 201 201 205 201 205 216 214 216 211 204 208 200 202 203 204 203 205
283 294 264 315 297 218 212 304 272 221 304 301 284 339 350 349 343 342 348 330 315 310 215 210 202 201 201 207 204 207 210 204 195 189 209 204 202 203 201 197 194 198 200 185
238 208 298 319 308 329 332 324 290 237 255 279 311 357 353 341 334 324 329 307 303 243 216 210 205 202 203 201 201 197 206 200 196 207 202 197 193 190 191 191 192 188 164 164
248 283 296 290 290 263 359 294 292 288 284 246 261 294 352 343 330 324 325 310 304 207 193 207 206 197 199 198 200 197 193 194 201 195 198 192 188 188 186 188 181 164 161 162
344 289 309 327 343 310 326 318 313 235 342 268 307 307 324 345 341 344 338 334 317 175 177 184 190 182 186 190 188 194 198 202 202 210 207 188 187 184 181 182 163 164 163 161
158 223 240 267 285 298 299 323 5 311 325 314 323 303 341 354 356 357 357 17 89 132 154 156 151 173 179 185 182 186 189 195 187 200 195 187 184 177 176 172 164 159 169 169
182 266 244 273 274 272 337 353 346 8 359 18 334 301 353 349 4 4 10 34 56 89 118 123 144 162 175 187 176 181 191 192 181 171 173 172 170 165 166 157 161 160 168 171
173 273 321 307 284 283 286 11 359 358 12 337 336 3 9 355 12 4 5 19 37 77 99 122 132 155 162 170 175 180 170 170 177 158 136 140 158 165 156 152 154 156 163 162
269 282 318 279 310 317 159 16 1 12 22 353 359 347 354 7 7 360 1 358 45 55 92 113 129 140 152 155 161 157 149 157 159 161 140 136 141 145 139 154 151 153 153 142
257 263 233 285 312 337 87 10 356 340 31 3 349 345 351 349 341 5 6 2 55 100 106 124 127 133 135 138 143 145 140 131 136 127 128 125 149 156 151 148 146 145 144 131
222 236 299 309 293 284 82 341 337 322 52 359 343 339 347 343 334 359 20 21 31 94 124 129 127 118 115 119 134 152 149 144 141 136 140 144 171 156 149 147 145 142 130 120
13 251 173 292 297 283 279 329 338 131 127 349 341 335 345 347 31 338 356 42 52 117 133 134 133 136 134 116 147 145 145 143 151 155 156 159 154 148 148 147 142 133 125 123
336 338 293 294 265 289 308 314 333 24 325 319 327 331 341 359 323 319 349 63 103 112 117 149 146 142 142 151 163 151 154 147 161 156 150 148 146 144 142 138 135 134 131 125
267 85 290 330 326 310 360 13 64 257 307 313 317 324 321 330 337 350 23 57 84 93 105 124 135 148 151 156 156 144 147 151 153 150 146 142 140 137 139 142 135 135 132 120
278 183 225 196 236 282 309 268 308 288 321 324 325 317 309 324 338 343 57 83 109 130 129 140 139 135 139 131 168 150 158 149 145 144 143 139 138 141 144 143 137 129 118 107
278 197 227 352 284 265 283 282 304 315 357 336 347 319 307 314 315 300 53 115 121 130 141 148 145 145 142 153 150 154 151 150 148 143 140 140 144 142 140 133 130 124 108 104
217 272 240 266 286 267 252 245 293 306 332 353 343 317 317 304 291 246 215 150 142 151 148 153 150 152 146 147 149 149 148 148 147 146 147 149 149 147 143 135 126 119 102 106
200 214 184 230 252 223 247 251 282 278 298 284 252 288 305 280 272 235 189 193 172 157 157 157 157 153 149 150 147 148 151 156 156 154 152 151 149 149 148 142 137 131 125 130
Wind_Speed_850mb
8 2 20 34 28 29 28 27 40 38 21 27 45 40 37 24 27 23 46 47 47 44 39 36 36 53 113 97 89 80 86 86 81 74 71 75 74 68 61 56 47 40 32 29
8 21 37 21 25 28 29 33 43 40 26 19 26 42 37 31 38 38 40 53 55 45 31 32 37 58 90 98 76 73 80 78 80 72 65 68 64 62 55 49 46 39 37 29
13 33 31 22 10 10 17 26 37 37 35 25 32 46 34 37 39 50 48 66 62 50 41 41 40 50 82 70 67 69 76 73 76 66 58 61 63 62 60 56 49 47 40 33
19 11 13 26 26 19 30 23 38 38 22 19 14 22 36 29 34 20 36 50 61 54 43 50 49 58 76 56 55 76 83 79 74 69 60 66 70 63 64 55 52 52 48 39
17 29 16 20 13 9 23 21 29 33 32 24 36 16 25 22 30 37 30 52 67 60 53 58 60 67 87 79 80 85 84 85 76 67 46 52 66 60 60 57 55 52 51 42
32 30 9 10 11 13 22 16 21 23 5 11 28 19 37 26 38 27 16 38 57 62 60 66 62 83 89 105 92 97 97 94 86 70 40 22 60 71 62 54 55 54 51 43
16 13 9 2 19 8 9 13 11 6 4 11 2 17 22 29 15 23 20 21 30 47 61 70 74 82 95 105 104 110 91 90 94 61 55 51 53 70 64 53 54 59 49 41
9 18 9 5 5 15 10 3 7 11 7 16 9 10 9 24 9 21 10 19 22 29 51 67 69 73 93 106 109 107 77 89 94 91 86 57 71 70 61 58 60 53 47 37
9 12 11 24 26 2 1 9 4 8 8 8 7 13 10 44 42 35 22 20 15 29 33 58 61 69 82 108 112 104 90 73 65 86 80 94 72 71 60 54 56 53 46 32
7 18 10 22 3 7 9 1 7 4 8 8 8 6 17 45 39 35 27 18 26 18 34 62 63 67 83 96 96 93 97 74 80 83 60 78 74 72 67 61 58 55 43 37
3 7 20 18 6 15 9 8 9 4 7 4 8 4 16 30 33 35 30 33 26 13 34 63 68 71 83 84 83 87 98 91 92 92 83 86 86 74 68 63 59 50 45 31
5 4 12 24 32 9 13 21 17 6 8 6 4 6 14 33 29 25 30 43 31 23 26 54 66 71 86 81 80 84 79 75 75 87 90 91 83 70 65 59 50 46 41 33
2 4 13 19 9 9 15 30 33 11 5 7 8 8 26 31 25 31 32 44 14 23 33 46 61 71 72 68 62 60 61 67 77 83 76 83 77 72 65 57 50 50 40 31
5 4 9 10 30 29 27 31 17 10 8 14 5 21 26 36 31 39 56 54 22 23 36 49 51 59 61 63 62 58 57 66 69 76 78 83 77 74 65 66 64 53 39 39
3 8 8 26 34 24 13 28 35 29 34 7 34 18 25 32 30 37 59 50 43 48 47 44 51 52 62 60 56 59 58 58 62 64 68 80 75 74 71 71 48 48 46 47
5 8 7 20 9 23 26 31 40 28 36 19 28 15 29 30 58 54 56 56 37 40 56 57 56 53 56 61 58 56 53 59 57 73 62 69 81 75 85 76 61 60 54 46
4 6 11 10 18 19 9 23 29 22 34 28 21 29 33 24 28 39 58 48 45 36 50 56 62 57 54 56 62 67 63 58 59 45 45 52 71 74 67 63 62 53 44 38
7 4 4 10 15 4 5 8 17 16 34 34 36 36 30 25 14 41 47 51 29 42 51 49 64 59 59 62 57 64 78 76 75 72 81 67 47 43 66 59 52 46 40 34
8 4 6 4 7 10 5 13 15 11 8 26 33 39 42 45 15 13 41 40 25 32 46 56 70 75 71 62 57 66 86 87 77 86 81 76 73 71 65 57 52 46 35 30
4 7 3 3 6 7 6 21 41 7 3 31 34 32 28 36 6 6 40 29 22 19 36 62 55 47 46 38 52 70 64 65 68 84 88 88 81 75 69 59 49 39 32 30
7 6 5 6 6 10 5 26 27 9 11 39 43 34 26 9 5 22 23 31 26 23 20 21 29 33 38 53 66 66 70 66 72 79 77 72 69 64 57 48 39 38 36 34
5 1 5 6 6 10 12 13 10 4 21 35 39 25 18 13 11 13 12 17 19 20 19 18 23 26 36 51 58 66 55 68 77 76 72 67 64 58 48 43 47 43 37 34
5 10 4 10 9 10 19 14 16 9 14 29 34 25 12 16 12 7 7 11 21 21 24 27 27 30 38 32 41 51 59 64 68 73 72 68 59 51 47 50 50 45 35 33
6 4 6 3 7 10 22 20 21 15 11 25 22 6 13 15 11 6 3 8 11 21 25 27 34 39 45 51 60 62 66 68 70 70 67 61 53 51 48 46 41 40 35 35
14 2 6 9 15 18 15 17 17 22 8 2 14 13 15 12 11 5 5 6 13 18 27 30 39 47 57 63 68 65 69 66 65 60 57 56 56 54 51 46 40 37 34 26
18 15 9 11 19 12 12 12 13 20 19 7 5 13 12 12 13 8 9 8 10 16 20 30 41 54 59 63 64 62 59 57 56 62 62 62 61 55 48 47 52 39 36 38
Wind_Direction_850mb
264 273 255 256 233 246 271 272 265 262 273 280 274 277 273 285 258 254 273 275 282 280 272 259 244 228 212 216 211 215 213 214 203 191 192 196 198 196 194 190 186 185 187 194
331 263 269 271 259 262 258 266 269 280 254 237 279 276 271 275 266 255 255 266 271 270 266 240 229 208 199 198 200 207 209 212 208 193 188 193 190 190 189 186 189 191 195 203
237 264 304 313 286 291 255 248 267 269 293 247 273 273 274 267 263 258 247 251 262 261 256 227 224 214 196 188 193 201 206 208 209 205 195 190 191 196 196 199 194 196 201 208
271 280 299 302 286 271 273 245 254 266 281 283 186 278 277 270 262 242 234 234 245 253 248 219 214 207 198 183 192 207 203 200 201 202 206 203 200 202 203 198 195 194 198 204
269 303 312 311 257 233 247 275 269 266 263 275 274 262 263 252 247 242 237 228 238 246 237 207 197 197 195 194 199 202 198 194 198 191 187 197 208 196 193 195 195 190 195 199
263 279 231 222 296 296 257 312 290 276 308 252 255 259 281 258 241 247 227 224 233 242 233 206 201 189 193 187 190 197 197 195 196 191 192 277 213 200 198 193 192 192 194 195
319 293 289 160 326 311 15 319 306 301 252 255 323 281 260 287 279 228 208 205 244 249 228 200 196 193 186 187 193 198 205 204 201 210 207 278 224 215 207 197 196 197 197 195
352 325 6 2 308 276 311 245 285 301 310 291 261 243 264 4 24 19 334 264 251 269 216 201 194 197 193 200 198 196 203 208 210 221 231 226 235 214 205 197 194 201 207 201
331 270 308 299 290 244 297 253 215 267 233 283 269 287 269 353 4 3 9 14 266 272 213 210 198 199 197 201 201 205 201 205 216 214 216 211 204 208 200 202 203 204 203 205
283 294 264 315 297 218 212 304 272 221 304 301 284 339 350 349 343 342 348 330 315 310 215 210 202 201 201 207 204 207 210 204 195 189 209 204 202 203 201 197 194 198 200 185
238 208 298 319 308 329 332 324 290 237 255 279 311 357 353 341 334 324 329 307 303 243 216 210 205 202 203 201 201 197 206 200 196 207 202 197 193 190 191 191 192 188 164 164
248 283 296 290 290 263 359 294 292 288 284 246 261 294 352 343 330 324 325 310 304 207 193 207 206 197 199 198 200 197 193 194 201 195 198 192 188 188 186 188 181 164 161 162
344 289 309 327 343 310 326 318 313 235 342 268 307 307 324 345 341 344 338 334 317 175 177 184 190 182 186 190 188 194 198 202 202 210 207 188 187 184 181 182 163 164 163 161
158 223 240 267 285 298 299 323 5 311 325 314 323 303 341 354 356 357 357 17 89 132 154 156 151 173 179 185 182 186 189 195 187 200 195 187 184 177 176 172 164 159 169 169
182 266 244 273 274 272 337 353 346 8 359 18 334 301 353 349 4 4 10 34 56 89 118 123 144 162 175 187 176 181 191 192 181 171 173 172 170 165 166 157 161 160 168 171
173 273 321 307 284 283 286 11 359 358 12 337 336 3 9 355 12 4 5 19 37 77 99 122 132 155 162 170 175 180 170 170 177 158 136 140 158 165 156 152 154 156 163 162
269 282 318 279 310 317 159 16 1 12 22 353 359 347 354 7 7 360 1 358 45 55 92 113 129 140 152 155 161 157 149 157 159 161 140 136 141 145 139 154 151 153 153 142
257 263 233 285 312 337 87 10 356 340 31 3 349 345 351 349 341 5 6 2 55 100 106 124 127 133 135 138 143 145 140 131 136 127 128 125 149 156 151 148 146 145 144 131
222 236 299 309 293 284 82 341 337 322 52 359 343 339 347 343 334 359 20 21 31 94 124 129 127 118 115 119 134 152 149 144 141 136 140 144 171 156 149 147 145 142 130 120
13 251 173 292 297 283 279 329 338 131 127 349 341 335 345 347 31 338 356 42 52 117 133 134 133 136 134 116 147 145 145 143 151 155 156 159 154 148 148 147 142 133 125 123
336 338 293 294 265 289 308 314 333 24 325 319 327 331 341 359 323 319 349 63 103 112 117 149 146 142 142 151 163 151 154 147 161 156 150 148 146 144 142 138 135 134 131 125
267 85 290 330 326 310 360 13 64 257 307 313 317 324 321 330 337 350 23 57 84 93 105 124 135 148 151 156 156 144 147 151 153 150 146 142 140 137 139 142 135 135 132 120
278 183 225 196 236 282 309 268 308 288 321 324 325 317 309 324 338 343 57 83 109 130 129 140 139 135 139 131 168 150 158 149 145 144 143 139 138 141 144 143 137 129 118 107
278 197 227 352 284 265 283 282 304 315 357 336 347 319 307 314 315 300 53 115 121 130 141 148 145 145 142 153 150 154 151 150 148 143 140 140 144 142 140 133 130 124 108 104
217 272 240 266 286 267 252 245 293 306 332 353 343 317 317 304 291 246 215 150 142 151 148 153 150 152 146 147 149 149 148 148 147 146 147 149 149 147 143 135 126 119 102 106
200 214 184 230 252 223 247 251 282 278 298 284 252 288 305 280 272 235 189 193 172 157 157 157 157 153 149 150 147 148 151 156 156 154 152 151 149 149 148 142 137 131 125 130